Find Starlink 36300

NORAD ID: 68303 Int'l Des: 2026-057 Owner: SPXS Country: US Constellation: starlink operational
LEOCIRCULARRETROGRADE

实时位置

正在加载3D地球...

关于 Starlink 36300

正在加载描述...

即将过境

Passes for default location (London). Set your location on the main map for personalized predictions.

高度历史

Loading altitude history...

两行轨道根数

1 68303U 26057K 26125.31287536 .00279147 00000-0 18061-2 0 9999
2 68303 97.2864 250.6506 0001424 89.8245 270.3184 15.75263706 7205
Epoch: May 5, 2026 • Age: 19 hours

当前状态

高度 351.8 km
速度 7.70 km/s
星下点 58.98°N, 15.5°W
发射日期 Mar 20, 2026
运行时间 0.1 years
类型 internet

技术详情

分类 Payload
质量 575.00 kg
干质量 530.00 kg
总质量 575.00 kg
长度 0.30 m
直径 4.10 m
跨度 29.00 m
形状 Box + pan
制造商 SPXS
平台类型 Starlink V2MO
阶段状态 In Orbit
所有者/国家 SPXS/US

Most Searched